West Palm Beach, FL

9:23 PM EST on November 16, 2019 (GMT -0500)
Palm Beach International

Weather History for KPBI - July, 2019

Change the Weather History Date:

Monday, July 22, 2019

  Actual Average Record
Temperature  
Mean Temperature 84 °F 83 °F  
Max Temperature 90 °F 90 °F 99 °F (1942)
Min Temperature 77 °F 76 °F 67 °F (1902)
Degree Days  
Heating Degree Days 0 0  
Month to date heating degree days 0 0  
Since 1 June heating degree days 0 0  
Since 1 July heating degree days 0 0  
Cooling Degree Days 19 18  
Month to date cooling degree days 436 385  
Year to date cooling degree days 2408 1984  
Since 1 June cooling degree days 1007 875  
Growing Degree Days 34 (Base 50)    
Moisture  
Dew Point 74 °F    
Average Humidity 75    
Maximum Humidity 91    
Minimum Humidity 59    
Precipitation  
Precipitation 0.00 in 0.18 in 2.60 in (1973)
Month to date precipitation 0.89 4.17  
Year to date precipitation 29.09 31.18  
Snow  
Snow 0.00 in - - ()
Month to date snowfall 0.0  
Since 1 June snowfall 0.0  
Since 1 July snowfall 0.0  
Snow Depth 0.00 in    
Sea Level Pressure  
Sea Level Pressure 30.01 in    
Wind  
Wind Speed 8 mph (ENE)    
Max Wind Speed 26 mph    
Max Gust Speed 33 mph    
Visibility 10 miles    
Events Thunderstorm    
T = Trace of Precipitation, MM = Missing Value Source: NWS Daily Summary

Daily Weather History Graph

Daily Weather History Graph

Search for Another Location

Airport or City:

Astronomy

Jul. 22, 2019 Rise Set
Actual Time 6:40 AM EDT 8:13 PM EDT
Civil Twilight 6:14 AM EDT 8:38 PM EDT
Nautical Twilight 5:44 AM EDT 9:09 PM EDT
Astronomical Twilight 5:12 AM EDT 9:41 PM EDT
Moon No Moon Rise 11:30 AM EDT (7/22)
Length of Visible Light 14h 24m
Length of Day
13h 33m
Waning Gibbous, 72% of the Moon is Illuminated
Jul 22
Waning Gibbous
Jul 24
Last Quarter
Jul 31
New
Aug 7
First Quarter
Aug 15
Full

Hourly Weather History & Observations

Time (EDT) Temp. Heat Index Dew Point Humidity Pressure Visibility Wind Dir Wind Speed Gust Speed Precip Events Conditions
12:53 AM 78.1 °F - 72.0 °F 81% 30.05 in 10.0 mi NNW 3.5 mph - N/A   Partly Cloudy
1:53 AM 78.1 °F - 73.0 °F 84% 30.03 in 10.0 mi NNW 3.5 mph - N/A   Partly Cloudy
2:53 AM 77.0 °F - 72.0 °F 84% 30.01 in 10.0 mi NNW 4.6 mph - N/A   Partly Cloudy
3:53 AM 78.1 °F - 72.0 °F 81% 30.01 in 10.0 mi NNW 3.5 mph - N/A   Scattered Clouds
4:53 AM 77.0 °F - 72.0 °F 84% 30.01 in 10.0 mi Calm Calm - N/A   Scattered Clouds
5:53 AM 78.1 °F - 72.0 °F 81% 30.01 in 10.0 mi Calm Calm - N/A   Scattered Clouds
6:53 AM 77.0 °F - 73.0 °F 88% 30.02 in 10.0 mi NNW 3.5 mph - N/A   Partly Cloudy
7:53 AM 79.0 °F - 75.0 °F 88% 30.03 in 10.0 mi NNW 3.5 mph - N/A   Scattered Clouds
8:53 AM 82.0 °F 90.2 °F 77.0 °F 85% 30.04 in 10.0 mi NNW 5.8 mph - N/A   Scattered Clouds
9:53 AM 87.1 °F 97.3 °F 75.9 °F 69% 30.04 in 10.0 mi ENE 9.2 mph - N/A   Scattered Clouds
10:53 AM 86.0 °F 95.1 °F 75.0 °F 70% 30.05 in 10.0 mi East 10.4 mph - N/A   Scattered Clouds
11:53 AM 89.1 °F 98.0 °F 73.9 °F 61% 30.05 in 10.0 mi SE 10.4 mph 18.4 mph N/A   Scattered Clouds
12:53 PM 90.0 °F 100.2 °F 75.0 °F 61% 30.03 in 10.0 mi East 16.1 mph 21.9 mph N/A   Scattered Clouds
1:53 PM 90.0 °F 100.2 °F 75.0 °F 61% 30.01 in 10.0 mi East 13.8 mph - N/A   Scattered Clouds
2:53 PM 89.1 °F 98.0 °F 73.9 °F 61% 30.01 in 10.0 mi East 15.0 mph - N/A   Scattered Clouds
3:53 PM 88.0 °F 100.2 °F 77.0 °F 70% 30.00 in 10.0 mi East 15.0 mph - N/A   Scattered Clouds
4:53 PM 84.9 °F 93.3 °F 75.0 °F 72% 30.00 in 10.0 mi East 23.0 mph - N/A   Mostly Cloudy
5:53 PM 86.0 °F 96.0 °F 75.9 °F 72% 29.97 in 10.0 mi East 15.0 mph - N/A   Scattered Clouds
6:53 PM 86.0 °F 96.0 °F 75.9 °F 72% 29.96 in 10.0 mi East 15.0 mph - N/A   Mostly Cloudy
7:53 PM 82.0 °F 87.4 °F 73.0 °F 74% 29.99 in 10.0 mi South 5.8 mph - N/A   Mostly Cloudy
8:53 PM 82.0 °F 88.6 °F 75.0 °F 79% 29.99 in 10.0 mi SE 3.5 mph - N/A   Mostly Cloudy
9:53 PM 82.0 °F 87.9 °F 73.9 °F 76% 30.00 in 10.0 mi SE 4.6 mph - N/A   Scattered Clouds
10:26 PM 82.0 °F 87.9 °F 73.9 °F 76% 30.00 in 10.0 mi SE 3.5 mph - N/A Thunderstorm Thunderstorm
10:53 PM 82.0 °F 87.9 °F 73.9 °F 76% 30.00 in 10.0 mi SE 3.5 mph - N/A Thunderstorm Thunderstorm
11:42 PM 82.0 °F 87.4 °F 73.0 °F 74% 30.00 in 10.0 mi Calm Calm - N/A   Scattered Clouds
11:53 PM 80.1 °F 84.2 °F 73.0 °F 79% 29.99 in 10.0 mi WNW 5.8 mph - N/A   Scattered Clouds